Location: Clichy
(48.9002°N, 2.3095°E)
Time: 21:39:12
(UTC+00:00)

Daily predictions for brighter satellites

Satellite Brightness Start Highest point End
(mag) Time Altitude Azimuth Time Altitude Azimuth Time Altitude Azimuth
Cosmos 1607 4.4 17:22:05 10° NNW 17:28:10 45° NE 17:34:07 10° ESE
SMAP 3.8 17:25:51 10° S 17:30:27 61° W 17:35:06 10° NNW
ATLAS 3B R/B 3.0 17:25:46 10° S 17:31:53 44° ESE 17:38:16 10° NE
SKYMED 2 4.0 17:33:42 10° NNE 17:37:49 40° E 17:41:55 10° SSE
Cosmos 2297 Rocket 2.6 17:32:12 10° NNW 17:37:51 69° WSW 17:43:27 10° SSE
Aureole 2 3.9 17:35:30 10° NNW 17:38:27 77° ENE 17:41:29 10° SSE
Meteor 1-22 Rocket 4.5 17:32:41 10° S 17:38:40 89° WNW 17:44:49 10° NNE
Cosmos 1980 Rocket 3.3 17:35:11 10° SSE 17:39:30 23° ESE 17:43:50 10° NE
Okean 2 Rocket 3.3 17:35:24 10° SSW 17:39:49 76° W 17:44:19 10° N
Okean O Rocket 1.6 17:37:12 10° SSE 17:41:28 59° ENE 17:45:45 10° N
Cosmos 2263 Rocket 3.2 17:36:53 10° NNW 17:41:36 27° NE 17:46:17 10° ESE
BREEZE-M DEB (TANK) 3.8 17:32:43 10° W 17:42:51 84° N 17:46:00 11° E
Landsat 5 3.9 17:40:38 10° NNE 17:44:46 44° E 17:48:59 10° S
Spot 2 4.4 17:41:17 10° SE 17:45:03 38° ENE 17:48:58 10° N
Okean-O 3.9 17:45:12 10° ESE 17:48:31 21° ENE 17:51:51 10° NNE
Genesis I 3.4 17:48:42 10° NW 17:52:46 59° NE 17:56:49 10° SE
Cosmos 1656 3.7 17:47:14 10° SSW 17:52:47 85° WNW 17:58:17 10° NNE
YAOGAN 1 3.2 17:49:00 10° SE 17:52:56 35° ENE 17:56:52 10° N
Cosmos 1727 Rocket 4.0 17:47:14 10° N 17:53:29 72° E 17:59:39 10° SSE
Cosmos 468 4.5 17:49:02 10° NNW 17:54:23 77° ENE 17:59:40 10° SSE
Cosmos 2084 Rocket 3.1 17:51:24 10° SSW 17:55:16 71° SE 17:59:11 10° NE
Cosmos 2298 Rocket 4.3 17:50:36 10° S 17:55:39 48° ESE 18:00:45 10° NNE
ARGOS 3.2 17:50:20 10° SSE 17:55:39 64° ENE 18:01:01 10° N
Cosmos 1048 Rocket 4.0 17:50:23 10° NNW 17:55:48 83° ENE 18:01:08 10° SSE
CENTAUR R/B 4.0 17:50:40 10° W 17:56:32 35° NNW 18:03:27 10° NE
CZ-4C R/B 3.3 17:53:17 10° NNE 17:56:38 43° E 17:59:53 10° S
Cosmos 1455 Rocket 4.1 17:54:13 10° SE 17:57:48 25° E 18:01:24 10° NNE
MOS 1-B Rocket 4.3 17:51:03 10° NNE 17:58:11 55° E 18:04:15 10° S
Cosmos 1697 Rocket 2.8 17:52:42 10° S 17:58:14 57° ESE 18:03:47 10° NE
Gbstr 26 Del rocket 4.4 17:52:04 10° WNW 17:59:02 75° N 18:06:06 14° E
Cosmos 389 Rocket 2.8 17:56:22 10° SSE 17:59:33 39° E 18:02:45 10° NNE
Cosmos 1908 3.8 17:56:27 10° SSE 17:59:59 34° E 18:03:32 10° NNE
HJ-1C 4.2 17:59:39 10° SE 18:02:29 28° ENE 18:05:19 10° N
H-2A R/B 3.0 17:59:48 10° NE 18:03:05 23° E 18:06:22 10° SSE
Cosmos 2227 Rocket 2.8 17:58:30 10° NW 18:04:06 60° WSW 18:09:38 10° S
Cosmos 2366 rocket 4.2 17:58:21 10° SSW 18:04:31 77° W 18:10:47 10° N
CZ-4 R/B 1.6 18:05:30 10° SE 18:09:17 48° ENE 18:13:11 10° N
CSL-04 Rocket 4.5 18:05:46 10° ESE 18:10:35 32° ENE 18:15:26 10° N
Cosmos 1470 4.0 18:07:30 10° SSW 18:11:20 47° WNW 18:15:12 10° N
Cosmos 1758 3.4 18:08:04 10° SSW 18:12:04 80° W 18:16:04 10° N
CZ-2C R/B 2.7 18:08:14 10° NNE 18:13:53 73° ESE 18:19:27 10° S
Cosmos 405 4.4 18:11:29 10° SW 18:14:45 41° WNW 18:18:02 10° N
Cosmos 1844 Rocket 4.4 18:14:05 10° N 18:17:26 16° NE 18:19:23 14° ENE
Cosmos 1703 3.3 18:14:00 10° N 18:17:54 54° ENE 18:21:44 10° SSE
Meteor 1-16 Rocket 4.4 18:12:33 10° S 18:18:18 54° E 18:23:59 10° NNE
Cosmos 1125 Rocket 3.5 18:13:54 10° S 18:19:05 62° ESE 18:24:17 10° NNE
Okean 1 Rocket 3.4 18:17:44 10° SSW 18:22:03 68° WNW 18:26:24 10° N
Cosmos 1726 4.5 18:19:54 10° SW 18:22:58 26° WNW 18:26:05 10° NNW
Cosmos 1953 2.3 18:19:40 10° S 18:23:38 57° E 18:27:39 10° NNE
SL-08 R/B 4.5 18:19:34 10° S 18:25:45 88° ESE 18:32:06 10° N
COSMO-SKYMED 1 2.9 18:21:40 10° N 18:26:01 68° WNW 18:30:18 10° SSW
Cosmos 2082 3.9 18:22:58 10° NNW 18:28:36 75° WSW 18:34:11 10° SSE
Meteor 1-21 Rocket 4.3 18:23:14 10° N 18:29:05 85° ENE 18:34:59 10° SSE
Cosmos 1328 4.2 18:25:20 10° N 18:29:10 41° ENE 18:31:20 22° SE
SL-08 RB Rocket 3.6 18:25:16 10° SSE 18:29:47 89° ENE 18:34:23 10° NNW
Lacrosse 4 Rocket 3.3 18:28:33 10° N 18:31:08 15° NE 18:31:40 15° NE
X-37B 2.1 18:28:50 10° SSW 18:31:21 22° SSE 18:31:32 22° SSE
Cosmos 494 Rocket 4.5 18:27:35 10° NNW 18:32:46 62° WSW 18:37:52 10° S
Iridium 4 Rocket 3.1 18:30:24 10° N 18:34:40 57° E 18:39:12 10° SSE
Cosmos 1000 Rocket 4.4 18:29:38 10° N 18:35:49 89° ENE 18:42:01 10° S
DMSP B5D2-2 4.2 18:31:01 10° NNE 18:36:11 52° E 18:41:16 10° S
USA 186 4.0 18:41:43 15° NNE 18:41:43 15° NNE 18:42:29 10° NNE
Cosmos 1892 Rocket 3.6 18:36:13 10° N 18:40:43 83° W 18:45:09 10° S
DMSP B5D1-3 4.5 18:35:59 10° NNE 18:41:05 60° ESE 18:46:09 10° S
USA 215 4.0 18:39:09 17° ENE 18:43:54 45° N 18:50:04 10° WNW
Cosmos 489 Rocket 4.4 18:38:29 10° NNW 18:44:43 70° ENE 18:49:47 16° SSE
H-2A R/B 3.4 18:45:53 10° S 18:50:11 51° W 18:54:24 10° NNW
Cosmos 405 Rocket 2.7 18:46:49 10° NNW 18:50:44 83° W 18:54:26 12° S
Cosmos 1821 Rocket 4.3 18:46:24 10° SSW 18:52:48 73° W 18:59:12 10° N
H-2A R/B 4.4 18:59:04 10° SW 19:03:25 25° W 19:07:51 10° NW
ATLAS 5 CENTAUR R/B 2.0 19:00:46 10° SSW 19:03:32 39° SSE 19:03:32 39° SSE
Cosmos 2227 4.1 18:59:13 10° NNW 19:05:01 74° ENE 19:07:20 37° SE
Cosmos 2369 4.0 19:00:47 10° SW 19:06:24 69° WNW 19:12:06 10° NNE
Cosmos 1626 Rocket 3.3 19:06:33 10° N 19:10:53 72° ENE 19:11:04 70° E
In-Cosmos 22 Rocket 4.2 19:09:31 10° N 19:14:40 49° ENE 19:14:40 49° ENE
SeaSat 1 4.3 19:17:30 17° NNE 19:17:30 17° NNE 19:20:10 10° N
Cosmos 1934 Rocket 4.0 19:14:03 10° SSW 19:20:11 81° W 19:26:19 10° N
Cosmos 839 Rocket 4.3 19:14:17 10° NW 19:22:26 68° NE 19:24:24 48° ESE
ATLAS 3B R/B 3.3 19:16:05 10° WSW 19:22:30 53° NW 19:29:13 10° NE
Cosmos 724 4.3 19:16:56 10° NW 19:22:57 82° SW 19:24:47 46° SSE
Cosmos 1980 Rocket 2.5 19:17:21 10° SW 19:22:59 66° WNW 19:28:41 10° NNE
OBJECT-B 3.2 19:26:22 17° NNW 19:26:22 17° NNW 19:27:11 10° NNW
Okean-O 3.4 19:21:29 17° S 19:24:41 51° W 19:29:01 10° NNW
SJ-6B 4.0 19:27:09 33° N 19:27:09 33° N 19:29:23 10° N
Cosmos 2123 Rocket 4.4 19:19:27 10° NNW 19:25:43 64° W 19:31:56 10° S
Cosmos 2263 Rocket 2.4 19:20:28 10° NNW 19:26:00 66° WSW 19:28:27 33° S
Meteor 2-10 Rocket 4.4 19:35:10 39° NNE 19:35:10 39° NNE 19:38:37 10° NNE
Resurs 01 Rocket 3.7 19:40:22 17° N 19:40:22 17° N 19:41:34 10° N
H-2A R/B 3.3 19:35:22 10° N 19:39:10 38° WNW 19:42:59 10° SW
Cosmos 1697 Rocket 4.4 19:37:36 10° WSW 19:42:33 30° NW 19:47:33 10° NNE
CZ-4 R/B 4.1 19:41:54 10° SW 19:44:34 17° W 19:47:17 10° NW
Orbus 7S? 4.1 19:36:46 10° WNW 19:45:09 74° N 19:45:09 74° N
CENTAUR R/B 4.4 19:43:33 10° NW 19:49:30 27° N 19:53:07 20° NE
Cosmos 2278 4.3 19:45:04 10° SW 19:50:37 55° NW 19:56:15 10° NNE
Cosmos 2251 Rocket 4.2 19:53:58 10° NNW 19:57:44 46° N 19:57:44 46° N
Cosmos 2278 Rocket 4.2 19:58:30 10° N 20:00:57 16° NNE 20:00:57 16° NNE
Cosmos 1844 Rocket 3.4 19:57:01 10° NNW 20:01:03 44° N 20:01:03 44° N
IRS-1A Rocket 4.5 20:04:49 70° N 20:04:49 70° N 20:10:00 10° NNW
Lacrosse 4 Rocket 3.5 20:06:14 10° NNW 20:07:58 24° NNW 20:07:58 24° NNW
Ariane Rocket 4.2 20:18:14 36° NNW 20:18:14 36° NNW 20:21:15 10° NNW
Cosmos 2344 4.2 20:13:47 10° NW 20:22:50 82° SW 20:25:37 58° SSE
USA 215 3.7 20:26:29 52° N 20:26:29 52° N 20:32:35 10° WNW
ATLAS 3B R/B 4.4 21:09:17 10° WNW 21:14:49 26° NNW 21:16:27 24° N
CENTAUR R/B 4.2 21:35:08 10° NW 21:40:16 36° N 21:40:16 36° N
